Location: Góry Miechowskie
(50.3599°N, 20.1803°E)
Time: 08:01:56
(UTC+00:00)

Courier 1B - Pass Details

Date: 16 September 2024
Orbit: 962 x 1208 km, 28.3° (Epoch: 12 October)

Event Time Altitude Azimuth Distance (km) Brightness Sun altitude
Rises 14:11:16 0° 229° (SW) 3,934 12.0 23.7°
Reaches altitude 10° 14:16:01 10° 202° (SSW) 3,032 10.9 23.1°
Maximum altitude 14:18:53 12° 179° (S) 2,877 10.4 22.7°
Drops below altitude 10° 14:21:46 10° 157° (SSE) 3,088 10.2 22.2°
Sets 14:26:44 0° 130° (SE) 4,086 10.5 21.5°
